Theta_e
295 295 295 295 296 295 296 296 295 296 296 296 295 295 295 295 297 297 297 295 294 294 292 290 290 290 290 287 286 283 286 283 284 282 280 288 283 288 287 288 289 288 281 275 272 280 288 287 287 287 287 287 286 286
295 295 295 295 295 295 295 295 295 295 296 296 295 296 295 294 294 296 295 295 294 294 294 293 292 292 292 290 288 284 288 283 289 284 281 283 280 280 283 285 288 287 286 284 284 284 287 287 287 288 288 287 287 286
294 295 295 295 295 295 296 296 296 296 296 295 295 295 296 295 295 295 294 294 294 293 293 292 292 293 292 292 292 289 283 289 288 288 287 288 287 286 281 281 285 286 285 287 288 288 286 288 288 288 287 287 287 286
293 293 294 295 295 295 295 295 295 295 295 295 295 295 295 295 295 295 294 294 294 293 294 291 291 290 292 292 291 291 291 289 289 289 291 289 286 289 288 289 289 289 286 286 287 288 288 288 287 287 287 287 286 285
292 292 293 293 294 294 294 294 295 295 295 295 295 295 295 294 294 294 293 293 293 294 293 292 287 291 292 292 290 290 290 290 291 291 292 291 288 290 287 289 289 289 289 288 288 288 288 288 288 287 286 286 281 280
292 292 292 292 293 293 293 294 294 294 294 294 295 294 294 294 294 293 292 292 293 293 293 293 289 283 289 290 290 289 290 290 291 292 292 291 289 290 290 288 289 288 288 288 289 288 288 288 284 280 281 279 277 276
291 291 292 292 292 292 293 293 293 293 293 294 294 294 294 294 293 292 292 291 291 292 293 292 287 283 286 286 283 288 289 291 291 292 291 291 290 291 291 290 289 289 288 288 288 286 287 286 284 277 276 275 273 272
290 290 291 291 291 292 292 292 292 293 293 293 294 294 294 294 294 293 292 292 291 291 291 292 285 279 283 283 286 286 289 290 291 291 289 290 289 290 290 289 289 289 288 288 279 277 277 275 275 274 271 270 270 270
289 289 289 290 290 291 291 292 292 292 292 293 293 293 294 293 292 291 292 292 292 291 292 291 288 283 282 283 284 283 288 289 289 290 290 288 284 288 287 288 288 287 282 278 274 273 272 272 271 270 268 268 267 268
287 288 288 289 289 289 290 291 291 292 292 292 293 292 292 290 292 291 291 291 292 291 290 290 279 285 285 283 280 285 286 288 289 287 286 289 288 288 285 274 273 272 270 271 273 271 267 266 268 267 266 266 266 266
286 286 287 287 288 289 289 290 291 291 291 292 291 291 289 291 290 289 290 291 289 288 289 285 281 280 281 284 284 287 288 288 289 283 285 274 278 286 272 269 268 268 267 265 266 266 265 264 265 265 265 264 263 263
286 286 286 286 287 288 289 289 290 290 291 291 290 289 290 290 290 290 290 287 286 283 275 279 282 286 284 285 286 287 287 287 288 270 278 276 281 269 268 267 265 264 263 262 262 262 263 263 262 262 261 261 260 260
286 286 286 286 286 287 288 288 289 290 289 289 289 288 290 289 289 289 285 279 278 272 273 276 282 283 285 287 287 288 287 287 274 279 278 279 271 264 263 263 262 261 260 260 260 259 259 259 259 259 258 259 258 258
286 286 286 286 286 286 287 287 288 289 289 289 289 288 288 288 289 278 279 279 277 276 275 276 277 283 284 287 288 286 284 280 279 278 278 273 263 261 261 260 258 258 256 257 256 256 257 257 257 257 257 258 257 256
286 286 286 286 286 287 287 287 288 289 289 289 288 288 287 272 264 260 258 269 268 272 278 278 278 285 284 287 287 284 281 281 277 278 272 261 260 260 259 256 253 254 254 253 254 252 255 255 255 255 257 257 257 256
286 286 286 286 286 286 287 287 288 288 288 288 283 281 272 275 268 265 262 267 265 274 273 278 282 285 284 283 286 284 279 277 278 263 257 259 258 256 255 254 255 252 251 251 252 253 253 254 254 255 255 257 259 259
286 285 285 285 285 286 286 286 287 278 281 279 275 268 272 274 278 272 269 267 271 274 275 276 280 282 282 283 279 273 276 271 258 254 258 259 259 258 255 250 250 251 251 252 253 254 254 256 255 254 250 260 261 261
282 283 285 285 285 284 281 277 277 276 274 269 274 268 266 264 266 264 261 269 273 272 272 276 279 280 279 277 272 267 259 254 256 258 256 252 248 248 250 248 253 253 252 254 255 255 255 255 254 255 259 261 261 261
282 282 284 285 285 280 277 271 272 272 263 261 263 263 262 262 263 263 263 268 267 267 272 275 280 279 275 262 259 253 249 252 254 255 253 252 253 252 253 254 254 255 255 255 256 256 258 258 258 259 259 260 261 261
280 280 279 281 283 276 273 270 269 268 268 265 261 261 262 261 260 258 261 265 270 270 272 276 276 260 261 256 253 253 253 254 252 250 252 253 255 255 255 255 255 257 257 257 258 258 258 258 258 258 259 260 260 260
279 277 278 279 272 270 269 268 266 265 263 260 263 263 261 261 259 260 263 263 269 271 272 260 258 253 245 245 249 251 252 253 250 251 252 252 255 255 257 257 257 257 257 257 256 258 258 257 257 257 258 258 259 259
272 274 275 273 272 268 265 265 266 265 263 260 263 261 261 262 261 260 259 266 265 258 256 254 251 246 247 249 247 253 253 254 253 254 254 255 254 255 256 257 257 256 257 257 257 257 257 257 257 257 257 257 258 257
271 270 267 268 270 267 264 265 266 263 267 264 261 266 262 262 260 260 265 256 253 250 244 244 244 246 246 249 251 253 253 254 247 251 254 255 257 257 258 258 257 257 257 257 257 256 256 256 256 256 256 256 256 256
267 258 260 261 264 264 261 262 264 264 264 264 267 265 262 260 256 259 260 251 250 245 244 244 244 247 247 248 247 245 255 255 255 256 256 256 255 258 258 258 258 257 257 256 256 256 256 256 256 256 256 256 255 255
265 255 256 256 254 258 262 262 262 264 264 255 258 259 256 248 258 257 258 253 247 246 245 240 243 246 248 244 245 253 257 257 255 256 259 258 258 258 258 258 258 258 257 257 256 256 256 256 256 256 256 256 255 255
256 250 253 248 254 258 254 258 255 256 254 255 253 249 246 253 260 262 255 250 246 246 246 249 251 247 248 249 251 251 258 258 258 257 259 259 258 258 257 257 257 258 258 258 257 256 256 256 256 256 256 256 256 255
255 252 248 245 248 250 253 250 248 251 254 257 252 253 254 261 260 258 250 248 250 253 255 256 256 255 254 256 259 259 260 260 259 259 259 259 259 258 258 257 257 259 259 258 258 257 256 256 255 255 255 256 257 256
248 246 254 249 248 243 249 247 250 254 252 249 251 259 261 261 260 255 254 256 256 257 257 258 259 259 260 260 260 260 260 260 259 259 259 259 259 259 259 259 259 258 258 258 258 258 257 256 256 256 256 256 257 258
249 243 244 251 249 251 249 251 251 247 247 248 256 258 257 255 252 252 256 256 258 258 257 257 258 258 259 260 260 260 260 260 258 257 257 256 256 261 261 261 260 260 259 259 258 258 258 257 257 258 258 257 258 258
248 242 252 250 254 255 249 243 244 239 237 241 241 248 252 252 253 254 255 256 257 257 258 259 259 258 258 258 259 260 261 261 260 259 253 253 256 260 260 260 260 259 259 258 258 259 259 258 258 258 258 257 258 257
239 240 247 247 251 245 240 235 235 235 235 237 234 243 247 243 249 254 254 255 256 257 257 257 258 258 258 257 257 254 255 261 261 260 260 260 260 260 261 260 260 260 259 259 259 259 258 258 257 257 257 256 257 256
240 242 247 253 250 241 235 237 237 241 240 243 245 239 247 251 256 255 256 255 255 255 257 257 257 258 260 259 259 259 260 260 260 260 260 260 261 261 261 261 261 261 260 260 260 259 258 257 256 256 255 256 256 256
245 242 240 244 246 248 241 242 244 246 243 244 246 244 243 247 257 254 258 257 256 256 257 258 258 258 259 260 260 260 261 261 261 261 262 262 262 262 262 262 262 261 260 260 259 259 258 257 256 256 256 256 256 256
Wind_Speed
27 26 26 25 25 25 27 24 23 25 23 23 23 23 24 24 20 21 13 27 24 4 7 9 9 6 3 4 4 4 3 2 2 2 3 4 3 4 1 4 4 4 4 3 2 2 8 5 2 5 5 5 6 6
27 28 27 28 29 29 29 29 28 29 25 23 25 25 24 22 27 21 10 18 27 8 3 14 32 34 25 18 6 4 6 6 5 2 1 2 2 1 3 4 3 4 6 4 9 6 4 5 6 11 12 9 12 5
27 26 29 29 27 29 31 29 28 28 27 25 26 27 26 24 24 23 23 17 16 5 5 4 10 29 31 34 31 6 3 7 5 4 3 4 5 4 3 6 5 6 6 9 13 11 13 14 16 13 8 12 10 8
28 28 27 28 29 28 27 27 27 28 26 27 26 25 23 22 21 22 20 19 19 3 4 6 7 8 22 31 34 34 15 4 3 3 5 4 4 6 5 7 8 9 4 6 13 15 13 16 16 17 15 11 8 6
30 29 29 28 28 29 28 27 26 26 26 28 28 25 26 23 22 21 23 25 25 10 2 1 3 14 21 29 30 27 21 9 5 4 5 6 3 5 3 4 11 11 17 10 14 16 14 19 17 7 6 4 3 3
28 28 28 28 27 27 28 28 28 27 26 26 27 27 27 24 21 13 3 22 30 28 4 4 2 3 21 25 21 17 16 9 7 3 4 4 4 6 4 7 20 14 12 16 19 20 18 18 2 3 2 2 3 3
24 25 25 25 25 26 27 27 28 27 27 27 28 28 28 28 25 8 4 5 12 24 2 2 3 3 5 5 1 2 7 4 5 5 5 6 6 7 5 12 20 14 14 15 15 8 12 7 2 5 3 3 5 5
21 21 22 23 24 24 25 26 27 27 27 27 28 27 27 28 28 20 27 14 11 4 3 3 3 2 7 3 4 4 4 5 5 4 1 4 3 5 7 12 16 19 17 15 5 3 2 4 4 3 4 4 4 5
22 22 22 21 21 24 25 26 25 24 25 26 25 25 24 18 7 7 21 25 25 10 3 3 4 4 3 2 2 0 3 4 3 5 6 5 4 7 7 14 16 15 5 4 3 4 4 3 2 2 3 3 5 6
19 20 22 23 23 23 22 23 23 22 22 22 19 8 4 9 17 15 9 4 6 5 5 4 2 2 3 4 2 3 3 3 4 6 4 5 10 14 8 3 5 5 5 3 3 2 1 1 1 3 3 4 6 8
24 24 23 21 21 23 21 20 21 20 20 11 4 4 8 19 9 3 4 6 4 3 3 1 5 3 3 3 4 4 3 3 3 4 6 2 4 10 6 6 6 7 6 6 3 3 2 2 3 5 6 4 8 11
24 23 26 25 23 19 20 19 18 17 11 11 9 7 10 5 4 5 6 3 4 6 1 4 4 5 3 3 2 4 3 4 5 1 3 3 5 3 5 6 6 5 5 5 4 3 3 4 5 6 6 7 10 13
24 26 21 23 23 23 19 19 21 21 15 12 5 5 6 5 7 9 8 2 2 3 4 2 3 3 2 3 3 4 5 4 2 2 4 5 2 4 4 4 4 4 4 3 2 4 6 7 9 9 9 12 16 15
24 25 23 22 20 22 21 20 20 18 10 3 5 6 6 4 5 4 6 7 5 4 6 3 2 3 2 4 3 4 1 3 2 2 6 2 2 4 3 3 2 3 3 4 4 6 7 8 8 12 15 17 17 15
21 22 22 21 22 21 22 20 20 18 5 4 3 5 4 0 3 1 1 3 1 4 6 3 2 3 3 3 3 3 2 4 6 6 3 2 3 3 2 1 2 3 3 3 4 4 8 11 10 13 17 17 18 20
19 14 16 14 12 13 15 17 16 8 2 3 3 3 1 2 3 2 1 2 2 3 2 2 3 3 4 3 5 6 5 6 5 3 2 3 3 1 0 1 3 6 7 7 11 10 11 11 10 14 19 19 17 16
7 2 7 9 11 13 12 8 7 4 2 3 2 2 2 2 2 2 2 2 2 3 3 3 6 8 2 3 3 4 6 3 3 2 2 3 2 0 2 3 6 8 9 11 9 11 10 14 14 11 5 17 15 14
7 8 4 7 9 8 4 7 3 3 4 2 1 2 2 2 2 1 2 0 2 2 3 5 4 3 5 6 4 3 1 1 2 2 2 1 2 3 3 4 8 8 9 10 10 10 10 12 9 7 14 14 13 9
13 14 3 6 9 7 2 4 5 4 2 1 2 2 2 2 2 2 1 1 2 1 2 1 3 3 4 2 3 2 1 2 3 2 1 2 2 3 3 4 5 6 7 7 7 9 11 10 9 10 10 10 7 7
4 13 14 10 8 3 4 3 4 4 2 2 2 2 2 1 1 1 2 3 1 1 2 3 3 3 2 2 2 2 2 3 3 2 1 1 0 1 2 2 4 5 5 7 8 8 9 8 9 10 10 8 7 7
1 8 7 5 6 10 4 2 4 2 2 3 0 1 2 2 2 2 1 2 0 0 1 1 2 1 1 2 1 3 3 3 3 3 3 2 2 0 1 3 2 4 3 5 4 6 8 7 10 11 10 9 9 8
6 6 4 7 4 3 4 4 3 2 3 1 1 1 2 2 2 2 3 1 1 1 0 2 2 2 1 1 1 4 5 7 6 4 3 2 2 1 0 1 2 2 3 4 5 5 7 9 11 11 10 10 8 8
2 5 7 7 4 5 2 5 3 4 2 1 0 2 2 1 1 3 1 1 1 1 1 1 2 2 3 3 5 5 4 6 2 3 3 4 5 4 3 3 1 2 2 3 5 5 7 8 8 9 9 8 9 9
6 7 6 4 5 3 1 3 2 2 2 2 1 3 1 1 4 2 2 2 2 1 0 2 2 3 3 3 1 2 5 6 5 3 5 4 1 3 4 4 5 3 2 4 4 4 5 6 7 7 8 9 10 10
6 9 5 6 3 4 4 2 3 2 2 1 2 1 2 2 2 2 1 3 1 1 1 1 1 2 3 1 2 2 6 7 5 2 3 6 3 2 4 5 6 6 4 2 2 4 5 6 7 8 9 10 11 12
7 4 4 1 3 3 0 2 1 2 2 2 0 2 2 2 3 2 2 2 2 3 3 4 4 2 1 3 3 1 5 9 5 2 4 8 10 7 2 2 1 4 8 5 5 6 7 8 10 11 13 13 13 13
5 4 3 0 2 2 2 1 1 3 3 2 2 2 2 3 2 3 2 2 2 4 9 16 14 5 2 4 7 3 3 7 7 3 5 7 9 11 12 8 6 7 5 6 8 10 12 13 14 15 16 17 15 14
2 3 3 4 3 1 3 2 2 2 1 1 1 2 3 4 3 2 2 3 3 4 5 7 8 8 1 2 6 6 6 6 7 9 11 12 11 12 13 13 13 13 13 13 13 13 14 16 17 18 18 19 21 19
3 2 0 4 3 3 2 2 2 2 1 1 1 1 2 2 2 1 3 4 2 5 9 7 6 8 5 4 5 6 6 6 2 2 2 3 3 2 3 5 6 7 9 12 14 16 17 18 19 19 20 21 22 21
3 3 2 2 2 2 2 1 1 2 1 0 1 3 2 2 4 5 5 3 3 3 6 9 9 11 7 6 3 7 10 12 14 12 3 4 4 4 6 9 12 13 15 18 20 21 19 20 20 19 19 20 21 22
1 2 2 1 0 2 2 2 2 1 2 2 1 1 3 3 7 4 4 4 4 3 5 5 7 9 9 8 7 2 5 3 3 7 11 13 15 16 17 18 18 17 18 19 20 21 22 22 23 23 23 24 25 24
3 2 1 2 3 2 3 3 1 1 3 2 2 1 2 2 2 2 6 3 4 6 9 9 8 9 8 10 12 13 14 16 16 15 15 17 18 18 18 17 17 17 18 19 20 21 22 23 24 25 26 27 27 27
0 1 1 1 3 3 3 2 3 3 2 2 2 1 1 1 1 3 6 8 5 7 7 7 7 8 9 10 10 10 10 10 9 9 10 13 16 19 21 23 23 24 24 25 26 26 26 25 26 26 26 26 26 26
Wind_Direction
255 253 251 251 249 251 252 241 248 251 247 239 237 237 245 249 246 232 233 209 203 212 224 193 181 161 159 150 157 213 51 345 50 130 142 232 198 217 261 247 209 194 187 205 72 23 273 185 139 165 212 251 240 218
262 258 258 255 252 249 247 245 245 246 242 239 249 243 239 242 240 239 237 228 222 230 276 231 224 224 211 189 159 205 190 167 184 114 233 105 270 272 174 258 129 280 192 203 197 212 220 202 219 271 278 253 270 235
271 271 259 257 256 256 251 249 247 247 245 240 245 248 241 237 239 237 242 235 210 243 247 208 224 234 228 224 221 186 251 195 206 168 153 199 225 153 186 243 233 242 181 242 263 246 248 267 274 275 265 251 263 261
265 266 268 262 256 256 252 250 249 249 248 241 245 247 235 233 233 237 233 228 215 232 243 256 239 224 233 222 219 216 229 169 154 161 218 203 202 191 224 245 235 238 176 251 257 260 268 264 256 259 269 275 276 290
262 262 262 264 259 254 252 250 250 249 249 248 247 244 239 236 237 244 244 244 231 222 295 247 325 237 225 218 215 216 214 204 198 201 211 229 195 210 223 237 248 238 251 247 256 259 251 265 271 266 238 253 51 11
263 261 261 259 259 257 256 251 249 249 248 247 244 242 240 231 232 234 235 240 228 212 267 213 239 251 204 207 198 200 205 206 210 200 216 216 186 192 229 241 253 261 235 233 249 254 259 264 78 62 102 84 44 351
267 263 261 260 259 257 254 252 251 251 250 248 244 242 236 231 221 193 195 150 198 194 242 247 239 235 177 132 171 146 194 205 212 226 223 233 228 198 235 252 265 255 237 234 244 261 266 252 230 85 71 19 358 326
269 266 264 263 262 260 257 254 252 251 250 248 245 241 238 234 230 223 219 205 172 220 247 235 233 29 176 164 194 176 171 196 203 218 203 218 213 214 246 251 258 259 253 256 158 84 97 103 95 55 32 359 337 335
268 269 268 270 268 262 259 255 252 251 251 249 245 240 242 225 206 197 217 214 212 200 236 195 179 226 155 167 127 50 182 191 182 213 219 166 218 220 220 247 250 253 199 160 99 87 83 101 90 47 3 2 322 315
268 268 267 266 264 265 261 254 250 249 253 248 237 196 209 181 185 146 160 182 206 199 209 208 100 202 157 164 198 136 186 213 206 219 154 216 241 246 251 75 63 68 79 93 133 186 102 129 353 332 314 290 289 299
270 265 264 265 265 261 256 255 246 251 249 227 210 186 131 144 138 155 188 195 183 209 201 83 180 147 222 144 182 221 184 188 224 242 173 244 266 243 112 105 92 85 83 65 60 68 74 177 288 299 301 302 296 295
271 270 260 255 257 259 255 247 244 243 228 212 157 128 147 190 166 184 181 173 169 208 249 151 189 188 175 141 145 181 198 187 229 121 111 267 246 94 101 102 81 65 71 83 46 12 345 316 316 300 293 289 290 291
269 264 262 260 251 252 248 248 240 237 224 153 179 194 165 168 194 179 170 241 144 171 195 177 188 136 137 177 189 192 204 214 94 112 218 228 151 135 113 111 98 65 31 29 18 348 317 298 301 288 288 290 295 294
268 262 256 253 253 244 243 245 243 234 213 187 167 205 190 170 190 176 171 170 211 143 151 135 119 151 189 180 195 211 130 127 147 193 231 242 108 114 98 77 72 8 347 329 324 320 305 299 296 300 296 298 293 284
282 270 248 245 244 241 236 238 239 226 199 208 191 206 206 31 37 273 301 102 271 131 126 90 51 147 175 215 208 127 163 232 203 223 226 211 118 118 93 35 3 314 298 285 275 273 287 291 287 287 301 303 298 293
267 256 224 236 236 227 225 226 225 205 234 218 107 127 69 92 334 345 295 132 228 124 73 62 136 173 207 193 190 208 150 218 242 203 199 121 115 89 231 262 284 280 281 283 295 288 291 290 285 294 307 306 304 294
240 178 209 226 234 226 224 201 185 49 36 98 105 5 77 28 78 108 170 203 209 101 152 128 154 200 88 186 223 188 206 222 178 191 155 115 120 283 279 279 281 302 307 305 297 306 304 314 315 314 311 315 316 308
46 0 289 269 221 139 75 39 71 77 81 30 95 92 45 33 91 21 308 130 154 142 114 192 124 177 185 185 242 217 141 92 36 111 127 157 200 239 235 258 297 299 297 306 313 311 312 316 316 301 311 315 315 317
32 9 264 170 158 103 87 32 11 86 68 77 46 33 66 83 61 33 310 357 45 22 99 153 144 192 218 173 166 231 221 190 161 154 168 249 221 235 288 297 307 315 316 317 318 315 324 333 315 323 320 322 319 325
27 37 53 96 128 80 81 32 46 78 100 113 66 62 78 59 336 14 5 2 46 83 217 187 182 172 144 205 192 154 146 143 126 77 324 276 206 1 342 329 320 338 348 13 18 8 357 353 355 346 340 341 346 345
38 8 23 82 61 58 74 54 56 73 103 84 275 77 107 57 38 38 63 338 138 306 198 97 112 134 359 254 124 109 110 135 158 157 172 161 211 286 42 43 34 40 12 7 356 357 5 352 340 350 357 358 4 11
31 24 74 44 83 63 74 12 96 101 80 164 97 12 43 52 26 22 313 54 57 55 132 139 176 161 124 140 180 109 127 143 125 122 118 111 93 105 228 9 31 353 14 18 11 353 339 348 354 8 13 13 22 27
53 50 54 23 83 52 5 337 64 9 79 45 282 110 49 42 350 320 79 61 252 336 234 171 170 146 127 115 119 116 139 143 128 167 182 210 239 249 238 237 318 346 336 354 354 344 344 348 360 2 4 9 17 19
45 48 37 44 21 74 345 40 37 74 70 36 49 107 96 344 331 41 208 254 244 291 203 185 138 76 39 39 69 229 173 158 132 158 192 191 206 240 237 249 240 251 301 316 321 326 337 346 350 356 360 6 9 5
73 357 28 11 1 52 45 42 14 64 96 7 100 31 297 345 81 37 253 277 300 263 226 9 75 81 136 243 272 228 162 169 157 172 204 204 208 247 245 248 252 255 258 298 308 320 334 340 343 344 350 350 349 347
67 319 50 306 340 70 10 77 40 167 133 58 354 274 9 75 56 285 251 239 232 201 188 183 172 159 273 190 120 116 214 202 202 206 263 223 224 221 216 229 266 273 228 244 282 301 315 323 323 325 328 333 333 327
59 339 332 334 128 109 74 40 76 94 75 97 252 36 62 73 266 262 291 225 218 232 209 197 180 145 149 178 203 187 197 195 201 237 269 266 257 253 247 236 234 255 239 257 285 294 296 305 309 312 313 317 320 321
120 22 54 311 27 6 121 62 51 72 242 267 82 51 131 170 225 255 225 351 304 11 131 168 190 199 296 211 200 199 206 225 257 283 288 279 270 260 252 250 251 252 265 274 283 287 288 293 298 301 301 303 311 320
37 333 19 11 9 37 57 116 197 248 283 108 106 299 269 255 275 300 1 354 43 129 124 138 177 197 210 202 199 216 233 240 225 328 311 291 325 290 235 237 246 255 267 274 281 286 291 293 296 297 296 295 300 305
344 359 18 36 57 16 278 164 241 278 293 227 298 297 272 271 288 310 299 289 196 193 192 192 186 190 205 209 258 266 259 255 249 232 202 242 253 294 286 279 278 282 284 285 288 291 290 287 287 285 284 288 294 301
312 14 43 47 193 265 253 288 296 322 12 8 345 157 258 300 314 325 323 269 263 240 187 187 203 214 220 228 228 254 297 294 296 273 271 278 283 286 289 291 291 290 287 287 288 289 291 291 291 293 293 294 297 301
8 77 83 8 312 291 22 41 3 42 334 23 313 277 297 288 322 299 359 346 215 221 231 232 236 253 260 267 268 269 273 281 285 287 286 287 290 294 296 295 293 291 289 288 288 288 289 287 288 289 290 292 295 298
266 189 174 340 358 3 334 36 14 360 20 21 318 334 318 305 103 295 342 354 313 278 273 257 263 264 265 269 275 280 283 291 298 302 307 308 309 307 303 298 295 292 289 287 286 287 287 287 285 287 289 290 293 296